Location: Bjelajci
(45.0103°N, 16.1758°E)
Time: 04:06:18
(UTC+00:00)

SL-08 R/B - Pass Details

Date: 14 July 2020
Orbit: 674 x 739 km, 98.4° (Epoch: 10 August)

Event Time Altitude Azimuth Distance (km) Brightness Sun altitude
Exits shadow 01:22:18 - 154° (SSE) 2,551 5.9 -16.0°
Reaches altitude 10° 01:23:16 10° 153° (SSE) 2,160 5.6 -15.9°
Maximum altitude 01:27:57 64° 72° (ENE) 792 3.8 -15.5°
Drops below altitude 10° 01:32:45 10° 352° (N) 2,217 6.6 -15.0°
Sets 01:35:04 0° 350° (N) 3,151 7.4 -14.7°
